QPF
0.01 0.01 0.01 0.04 0.12 0.12 0.06 0.03 0.01 0.00 0.00 0.00 0.00 0.00 0.01 0.03 0.05 0.09 0.10 0.09 0.07 0.08 0.09 0.10 0.05 0.02 0.03 0.04 0.06 0.06 0.08 0.10 0.10 0.10 0.09 0.09 0.11 0.11 0.07 0.05 0.06 0.08 0.12 0.14 0.08 0.07 0.07 0.09 0.10
0.00 0.00 0.02 0.07 0.13 0.09 0.05 0.02 0.01 0.01 0.00 0.00 0.01 0.01 0.00 0.01 0.02 0.05 0.07 0.08 0.05 0.05 0.07 0.09 0.08 0.04 0.03 0.04 0.06 0.05 0.05 0.06 0.08 0.09 0.09 0.08 0.09 0.11 0.12 0.09 0.07 0.05 0.05 0.13 0.16 0.12 0.08 0.09 0.11
0.00 0.00 0.02 0.08 0.07 0.06 0.04 0.01 0.00 0.00 0.00 0.00 0.01 0.01 0.00 0.01 0.02 0.05 0.05 0.05 0.05 0.04 0.06 0.07 0.06 0.05 0.04 0.03 0.05 0.05 0.05 0.07 0.07 0.09 0.11 0.10 0.11 0.10 0.11 0.10 0.08 0.06 0.05 0.06 0.10 0.13 0.11 0.12 0.12
0.01 0.02 0.03 0.04 0.04 0.02 0.01 0.01 0.00 0.01 0.00 0.00 0.00 0.00 0.00 0.00 0.01 0.03 0.03 0.02 0.03 0.03 0.04 0.06 0.07 0.07 0.07 0.07 0.08 0.06 0.05 0.06 0.06 0.10 0.16 0.16 0.10 0.08 0.08 0.09 0.09 0.08 0.07 0.08 0.09 0.12 0.14 0.15 0.14
0.01 0.04 0.05 0.04 0.02 0.03 0.01 0.00 0.01 0.01 0.01 0.00 0.00 0.00 0.00 0.01 0.01 0.02 0.03 0.02 0.02 0.03 0.04 0.05 0.08 0.10 0.10 0.09 0.07 0.05 0.04 0.05 0.06 0.10 0.12 0.10 0.09 0.08 0.06 0.07 0.08 0.09 0.09 0.09 0.10 0.11 0.13 0.12 0.12
0.07 0.05 0.04 0.03 0.01 0.03 0.01 0.00 0.01 0.02 0.01 0.00 0.00 0.00 0.01 0.00 0.01 0.02 0.03 0.02 0.02 0.03 0.03 0.04 0.06 0.10 0.12 0.11 0.08 0.08 0.08 0.08 0.06 0.05 0.04 0.05 0.08 0.10 0.09 0.09 0.10 0.11 0.12 0.12 0.10 0.11 0.11 0.12 0.13
0.08 0.05 0.03 0.01 0.00 0.02 0.01 0.00 0.01 0.01 0.01 0.00 0.00 0.01 0.01 0.00 0.00 0.00 0.01 0.01 0.01 0.02 0.03 0.02 0.04 0.07 0.08 0.09 0.10 0.12 0.12 0.09 0.06 0.04 0.04 0.03 0.04 0.08 0.09 0.09 0.09 0.09 0.10 0.13 0.16 0.16 0.14 0.15 0.13
0.02 0.03 0.02 0.01 0.00 0.01 0.00 0.01 0.01 0.01 0.01 0.00 0.00 0.01 0.01 0.00 0.00 0.00 0.00 0.01 0.01 0.02 0.03 0.04 0.06 0.05 0.04 0.05 0.06 0.07 0.08 0.07 0.05 0.04 0.04 0.04 0.04 0.05 0.08 0.09 0.06 0.05 0.07 0.16 0.24 0.22 0.21 0.17 0.15
0.01 0.02 0.02 0.01 0.00 0.00 0.00 0.00 0.01 0.01 0.01 0.00 0.00 0.00 0.00 0.00 0.00 0.01 0.02 0.04 0.03 0.03 0.06 0.06 0.05 0.04 0.05 0.04 0.03 0.06 0.08 0.08 0.07 0.06 0.06 0.08 0.08 0.06 0.06 0.07 0.07 0.05 0.06 0.11 0.11 0.09 0.10 0.11 0.16
0.02 0.02 0.01 0.01 0.00 0.00 0.00 0.00 0.00 0.01 0.00 0.00 0.00 0.00 0.00 0.01 0.01 0.02 0.04 0.06 0.05 0.05 0.05 0.07 0.05 0.04 0.04 0.02 0.03 0.07 0.09 0.09 0.08 0.07 0.07 0.09 0.08 0.09 0.06 0.06 0.05 0.05 0.06 0.06 0.06 0.08 0.10 0.12 0.17
0.01 0.02 0.00 0.00 0.00 0.00 0.00 0.00 0.00 0.01 0.01 0.00 0.00 0.00 0.01 0.00 0.00 0.01 0.03 0.05 0.06 0.07 0.06 0.05 0.05 0.06 0.06 0.03 0.03 0.06 0.07 0.07 0.07 0.06 0.07 0.09 0.09 0.09 0.08 0.09 0.07 0.07 0.06 0.08 0.07 0.09 0.09 0.10 0.12
0.00 0.00 0.00 0.00 0.00 0.00 0.00 0.00 0.00 0.00 0.01 0.00 0.00 0.00 0.00 0.01 0.00 0.01 0.02 0.05 0.07 0.07 0.08 0.07 0.05 0.06 0.06 0.06 0.05 0.04 0.04 0.06 0.07 0.07 0.07 0.07 0.08 0.09 0.08 0.10 0.10 0.08 0.08 0.08 0.06 0.07 0.09 0.07 0.07
0.00 0.00 0.00 0.00 0.00 0.00 0.00 0.00 0.00 0.00 0.00 0.00 0.00 0.00 0.01 0.00 0.00 0.01 0.03 0.05 0.07 0.09 0.12 0.10 0.05 0.05 0.06 0.08 0.07 0.05 0.05 0.05 0.07 0.09 0.09 0.08 0.08 0.08 0.08 0.10 0.11 0.08 0.08 0.07 0.06 0.05 0.06 0.09 0.10
0.00 0.00 0.00 0.00 0.00 0.00 0.01 0.00 0.00 0.00 0.00 0.00 0.00 0.00 0.01 0.00 0.00 0.01 0.03 0.05 0.08 0.11 0.12 0.07 0.03 0.03 0.05 0.07 0.07 0.07 0.06 0.07 0.07 0.10 0.11 0.12 0.10 0.09 0.11 0.10 0.10 0.09 0.07 0.05 0.05 0.04 0.05 0.08 0.11
0.00 0.00 0.01 0.00 0.00 0.00 0.01 0.01 0.00 0.00 0.00 0.00 0.00 0.00 0.00 0.00 0.00 0.01 0.03 0.06 0.08 0.10 0.07 0.03 0.01 0.02 0.04 0.06 0.07 0.07 0.05 0.05 0.07 0.09 0.10 0.10 0.09 0.10 0.09 0.08 0.09 0.07 0.06 0.07 0.07 0.06 0.07 0.09 0.09
0.00 0.01 0.01 0.00 0.00 0.00 0.02 0.02 0.00 0.00 0.00 0.00 0.00 0.00 0.00 0.00 0.01 0.00 0.02 0.04 0.06 0.06 0.03 0.02 0.01 0.01 0.03 0.05 0.06 0.07 0.05 0.05 0.05 0.07 0.07 0.07 0.11 0.14 0.12 0.08 0.07 0.08 0.06 0.08 0.08 0.08 0.08 0.10 0.09
0.00 0.00 0.01 0.00 0.00 0.00 0.01 0.01 0.00 0.00 0.00 0.00 0.00 0.00 0.00 0.00 0.00 0.01 0.01 0.02 0.03 0.03 0.02 0.01 0.01 0.01 0.03 0.05 0.06 0.06 0.06 0.06 0.05 0.06 0.07 0.09 0.14 0.12 0.10 0.07 0.07 0.07 0.07 0.08 0.06 0.08 0.08 0.09 0.10
0.01 0.01 0.00 0.00 0.00 0.00 0.00 0.00 0.01 0.01 0.00 0.00 0.00 0.00 0.00 0.00 0.00 0.01 0.01 0.01 0.01 0.01 0.01 0.02 0.02 0.02 0.03 0.05 0.07 0.08 0.06 0.06 0.05 0.06 0.07 0.07 0.09 0.06 0.06 0.06 0.07 0.06 0.07 0.07 0.08 0.11 0.11 0.10 0.10
0.01 0.01 0.00 0.00 0.00 0.00 0.00 0.00 0.00 0.00 0.00 0.00 0.00 0.00 0.00 0.00 0.00 0.00 0.00 0.01 0.01 0.01 0.01 0.02 0.03 0.04 0.05 0.06 0.07 0.07 0.08 0.07 0.06 0.06 0.05 0.05 0.03 0.03 0.04 0.05 0.05 0.06 0.07 0.06 0.06 0.08 0.12 0.10 0.11
0.00 0.00 0.00 0.00 0.00 0.00 0.00 0.00 0.00 0.00 0.00 0.00 0.00 0.00 0.00 0.00 0.00 0.00 0.00 0.00 0.01 0.02 0.01 0.01 0.03 0.04 0.04 0.06 0.06 0.05 0.07 0.07 0.06 0.06 0.06 0.03 0.03 0.03 0.04 0.05 0.05 0.06 0.07 0.07 0.05 0.06 0.09 0.11 0.12
0.00 0.00 0.00 0.00 0.00 0.00 0.01 0.03 0.01 0.00 0.00 0.00 0.00 0.00 0.00 0.00 0.00 0.00 0.00 0.00 0.01 0.01 0.01 0.01 0.02 0.04 0.04 0.04 0.04 0.05 0.06 0.06 0.06 0.07 0.06 0.05 0.06 0.06 0.06 0.06 0.07 0.07 0.08 0.07 0.06 0.05 0.05 0.07 0.10
0.00 0.00 0.00 0.00 0.01 0.01 0.03 0.04 0.01 0.00 0.00 0.00 0.00 0.00 0.00 0.00 0.00 0.00 0.00 0.00 0.00 0.01 0.01 0.01 0.02 0.05 0.05 0.04 0.04 0.05 0.06 0.05 0.05 0.05 0.05 0.05 0.07 0.06 0.04 0.04 0.05 0.06 0.05 0.06 0.05 0.05 0.05 0.05 0.06
0.00 0.00 0.00 0.00 0.01 0.02 0.02 0.02 0.02 0.00 0.00 0.00 0.00 0.00 0.01 0.00 0.00 0.00 0.00 0.00 0.00 0.01 0.00 0.01 0.02 0.05 0.07 0.08 0.06 0.05 0.05 0.04 0.04 0.04 0.04 0.04 0.05 0.05 0.03 0.03 0.04 0.05 0.06 0.06 0.06 0.06 0.05 0.04 0.05
0.00 0.00 0.01 0.02 0.02 0.01 0.00 0.01 0.02 0.01 0.00 0.00 0.00 0.01 0.01 0.00 0.00 0.00 0.00 0.00 0.00 0.01 0.00 0.00 0.01 0.02 0.05 0.09 0.08 0.06 0.05 0.04 0.04 0.05 0.04 0.05 0.06 0.06 0.04 0.03 0.04 0.05 0.05 0.05 0.05 0.05 0.04 0.04 0.05
0.00 0.01 0.03 0.03 0.03 0.01 0.00 0.00 0.00 0.00 0.00 0.00 0.00 0.00 0.00 0.00 0.00 0.00 0.00 0.00 0.00 0.00 0.01 0.01 0.01 0.01 0.02 0.06 0.08 0.08 0.06 0.05 0.05 0.05 0.04 0.04 0.06 0.06 0.06 0.04 0.03 0.04 0.05 0.05 0.06 0.05 0.04 0.04 0.05
0.00 0.00 0.03 0.04 0.04 0.02 0.01 0.01 0.00 0.00 0.00 0.00 0.00 0.00 0.00 0.00 0.00 0.00 0.00 0.00 0.00 0.00 0.00 0.01 0.01 0.01 0.01 0.03 0.05 0.05 0.07 0.08 0.06 0.05 0.04 0.03 0.04 0.06 0.06 0.04 0.05 0.06 0.06 0.05 0.05 0.05 0.05 0.06 0.05
0.00 0.00 0.01 0.02 0.01 0.01 0.01 0.00 0.00 0.00 0.00 0.00 0.00 0.00 0.00 0.00 0.00 0.00 0.00 0.00 0.00 0.00 0.00 0.01 0.01 0.01 0.01 0.01 0.02 0.02 0.03 0.05 0.05 0.05 0.04 0.02 0.02 0.02 0.03 0.03 0.03 0.05 0.06 0.05 0.06 0.06 0.05 0.06 0.06
0.00 0.00 0.00 0.01 0.01 0.01 0.01 0.02 0.01 0.00 0.00 0.00 0.00 0.00 0.00 0.00 0.00 0.00 0.00 0.00 0.00 0.00 0.00 0.00 0.01 0.01 0.01 0.01 0.01 0.01 0.02 0.01 0.02 0.04 0.03 0.01 0.01 0.01 0.01 0.02 0.02 0.03 0.03 0.04 0.04 0.04 0.04 0.04 0.05
0.00 0.00 0.00 0.00 0.01 0.02 0.02 0.03 0.01 0.00 0.00 0.00 0.00 0.00 0.00 0.00 0.00 0.00 0.00 0.00 0.00 0.01 0.01 0.00 0.01 0.01 0.01 0.01 0.01 0.02 0.01 0.01 0.01 0.01 0.01 0.01 0.01 0.01 0.01 0.01 0.02 0.03 0.02 0.01 0.01 0.01 0.01 0.03 0.04
0.00 0.00 0.00 0.00 0.00 0.01 0.02 0.02 0.01 0.00 0.00 0.00 0.00 0.00 0.00 0.00 0.00 0.00 0.00 0.00 0.01 0.01 0.00 0.01 0.01 0.01 0.01 0.00 0.00 0.00 0.01 0.01 0.01 0.01 0.00 0.00 0.00 0.01 0.01 0.01 0.01 0.03 0.03 0.02 0.01 0.01 0.01 0.02 0.02
MSLP
1004.82 1005.63 1006.54 1007.37 1008.00 1008.32 1008.31 1008.00 1007.50 1006.95 1006.47 1006.14 1005.97 1005.92 1005.87 1005.74 1005.43 1004.93 1004.27 1003.57 1002.96 1002.55 1002.44 1002.64 1003.11 1003.74 1004.43 1005.08 1005.62 1006.04 1006.38 1006.71 1007.07 1007.50 1007.98 1008.49 1008.94 1009.29 1009.51 1009.60 1009.61 1009.62 1009.71 1009.93 1010.33 1010.88 1011.54 1012.25 1012.94
1005.13 1006.13 1007.15 1008.02 1008.60 1008.80 1008.61 1008.08 1007.37 1006.61 1005.96 1005.50 1005.25 1005.15 1005.10 1004.99 1004.74 1004.31 1003.75 1003.16 1002.65 1002.34 1002.30 1002.53 1003.00 1003.61 1004.25 1004.84 1005.33 1005.73 1006.09 1006.46 1006.89 1007.40 1007.97 1008.52 1009.00 1009.35 1009.53 1009.58 1009.55 1009.54 1009.63 1009.89 1010.34 1010.96 1011.70 1012.47 1013.20
1005.51 1006.65 1007.77 1008.65 1009.17 1009.24 1008.88 1008.17 1007.27 1006.36 1005.59 1005.05 1004.75 1004.63 1004.58 1004.49 1004.27 1003.89 1003.40 1002.87 1002.44 1002.20 1002.22 1002.49 1002.97 1003.55 1004.15 1004.69 1005.15 1005.53 1005.89 1006.29 1006.76 1007.33 1007.93 1008.52 1009.01 1009.35 1009.51 1009.53 1009.48 1009.46 1009.58 1009.89 1010.40 1011.10 1011.91 1012.75 1013.52
1005.83 1007.10 1008.27 1009.15 1009.61 1009.57 1009.08 1008.25 1007.25 1006.26 1005.46 1004.91 1004.61 1004.50 1004.46 1004.36 1004.13 1003.74 1003.24 1002.73 1002.31 1002.10 1002.15 1002.44 1002.93 1003.52 1004.11 1004.63 1005.07 1005.44 1005.79 1006.20 1006.70 1007.28 1007.91 1008.51 1009.01 1009.34 1009.49 1009.50 1009.46 1009.46 1009.62 1009.98 1010.57 1011.34 1012.21 1013.10 1013.91
1006.04 1007.36 1008.55 1009.42 1009.82 1009.72 1009.17 1008.30 1007.30 1006.35 1005.59 1005.11 1004.87 1004.79 1004.74 1004.61 1004.30 1003.82 1003.23 1002.63 1002.16 1001.92 1001.96 1002.28 1002.80 1003.42 1004.03 1004.58 1005.03 1005.40 1005.77 1006.18 1006.68 1007.27 1007.90 1008.51 1009.01 1009.35 1009.52 1009.55 1009.54 1009.59 1009.79 1010.21 1010.86 1011.68 1012.60 1013.51 1014.34
1006.08 1007.41 1008.58 1009.41 1009.79 1009.67 1009.13 1008.31 1007.40 1006.58 1005.98 1005.62 1005.48 1005.44 1005.36 1005.12 1004.67 1004.00 1003.21 1002.44 1001.83 1001.51 1001.51 1001.84 1002.41 1003.11 1003.81 1004.42 1004.94 1005.36 1005.75 1006.17 1006.68 1007.27 1007.90 1008.52 1009.04 1009.41 1009.61 1009.69 1009.74 1009.84 1010.10 1010.57 1011.26 1012.11 1013.04 1013.95 1014.77
1005.98 1007.27 1008.39 1009.17 1009.53 1009.43 1008.96 1008.28 1007.54 1006.93 1006.53 1006.34 1006.30 1006.28 1006.13 1005.73 1005.04 1004.10 1003.03 1002.00 1001.19 1000.72 1000.67 1001.02 1001.67 1002.48 1003.31 1004.07 1004.70 1005.22 1005.68 1006.14 1006.66 1007.26 1007.90 1008.53 1009.08 1009.50 1009.77 1009.92 1010.04 1010.22 1010.53 1011.04 1011.73 1012.58 1013.49 1014.37 1015.15
1005.82 1007.02 1008.06 1008.80 1009.13 1009.08 1008.73 1008.21 1007.70 1007.32 1007.14 1007.12 1007.17 1007.14 1006.86 1006.25 1005.26 1003.97 1002.56 1001.22 1000.16 999.53 999.42 999.78 1000.53 1001.50 1002.52 1003.47 1004.28 1004.94 1005.50 1006.03 1006.59 1007.21 1007.87 1008.53 1009.13 1009.61 1009.97 1010.21 1010.42 1010.67 1011.03 1011.56 1012.24 1013.06 1013.92 1014.74 1015.45
1005.69 1006.79 1007.74 1008.40 1008.72 1008.72 1008.49 1008.15 1007.86 1007.71 1007.73 1007.85 1007.95 1007.86 1007.42 1006.54 1005.22 1003.56 1001.78 1000.11 998.80 998.01 997.83 998.23 999.10 1000.25 1001.49 1002.66 1003.68 1004.52 1005.21 1005.84 1006.46 1007.12 1007.82 1008.53 1009.19 1009.75 1010.20 1010.55 1010.85 1011.16 1011.57 1012.09 1012.76 1013.51 1014.30 1015.04 1015.68
1005.68 1006.67 1007.51 1008.10 1008.40 1008.44 1008.30 1008.12 1008.01 1008.05 1008.21 1008.42 1008.53 1008.34 1007.71 1006.57 1004.92 1002.92 1000.80 998.83 997.29 996.36 996.12 996.57 997.56 998.90 1000.35 1001.76 1002.99 1004.02 1004.87 1005.61 1006.31 1007.03 1007.78 1008.54 1009.27 1009.92 1010.47 1010.92 1011.30 1011.68 1012.11 1012.64 1013.26 1013.94 1014.65 1015.30 1015.86
1005.85 1006.72 1007.46 1007.97 1008.23 1008.29 1008.22 1008.15 1008.17 1008.32 1008.57 1008.81 1008.88 1008.58 1007.77 1006.39 1004.48 1002.19 999.81 997.62 995.91 994.87 994.61 995.10 996.20 997.69 999.34 1000.95 1002.38 1003.58 1004.57 1005.42 1006.20 1006.98 1007.78 1008.60 1009.40 1010.14 1010.78 1011.31 1011.78 1012.21 1012.66 1013.17 1013.74 1014.36 1014.98 1015.55 1016.02
1006.18 1006.96 1007.59 1008.02 1008.23 1008.29 1008.25 1008.24 1008.32 1008.53 1008.80 1009.02 1009.02 1008.62 1007.68 1006.14 1004.05 1001.60 999.07 996.76 994.96 993.88 993.61 994.12 995.30 996.90 998.67 1000.42 1001.99 1003.33 1004.43 1005.36 1006.21 1007.04 1007.89 1008.76 1009.62 1010.43 1011.14 1011.75 1012.28 1012.75 1013.21 1013.70 1014.22 1014.77 1015.31 1015.81 1016.21
1006.62 1007.30 1007.84 1008.20 1008.37 1008.40 1008.37 1008.37 1008.47 1008.67 1008.92 1009.10 1009.04 1008.57 1007.55 1005.95 1003.83 1001.35 998.81 996.50 994.71 993.63 993.37 993.90 995.10 996.72 998.54 1000.34 1001.98 1003.37 1004.53 1005.51 1006.40 1007.26 1008.14 1009.05 1009.94 1010.80 1011.57 1012.23 1012.79 1013.29 1013.75 1014.22 1014.70 1015.19 1015.67 1016.10 1016.45
1007.07 1007.67 1008.14 1008.44 1008.57 1008.58 1008.55 1008.53 1008.60 1008.77 1008.98 1009.10 1009.00 1008.51 1007.52 1005.98 1003.95 1001.61 999.20 997.01 995.31 994.29 994.05 994.57 995.72 997.29 999.06 1000.81 1002.42 1003.79 1004.94 1005.93 1006.81 1007.67 1008.56 1009.47 1010.38 1011.26 1012.05 1012.74 1013.32 1013.82 1014.28 1014.72 1015.16 1015.61 1016.04 1016.43 1016.73
1007.41 1007.96 1008.38 1008.65 1008.77 1008.78 1008.74 1008.71 1008.74 1008.86 1009.01 1009.10 1008.99 1008.54 1007.66 1006.29 1004.48 1002.39 1000.23 998.27 996.73 995.81 995.59 996.06 997.11 998.55 1000.17 1001.79 1003.28 1004.57 1005.65 1006.58 1007.43 1008.26 1009.12 1010.01 1010.91 1011.77 1012.56 1013.24 1013.83 1014.32 1014.76 1015.18 1015.59 1016.01 1016.40 1016.76 1017.04
1007.59 1008.09 1008.50 1008.79 1008.94 1008.98 1008.95 1008.91 1008.91 1008.97 1009.07 1009.13 1009.04 1008.69 1007.97 1006.85 1005.36 1003.61 1001.79 1000.12 998.80 997.99 997.79 998.18 999.08 1000.32 1001.73 1003.15 1004.46 1005.61 1006.58 1007.43 1008.21 1008.98 1009.79 1010.62 1011.47 1012.30 1013.06 1013.72 1014.28 1014.76 1015.18 1015.57 1015.96 1016.35 1016.73 1017.07 1017.35
1007.59 1008.08 1008.52 1008.87 1009.09 1009.19 1009.20 1009.17 1009.14 1009.15 1009.20 1009.23 1009.18 1008.94 1008.42 1007.59 1006.46 1005.10 1003.65 1002.31 1001.22 1000.55 1000.35 1000.64 1001.35 1002.37 1003.53 1004.71 1005.82 1006.79 1007.63 1008.37 1009.06 1009.76 1010.49 1011.26 1012.05 1012.81 1013.51 1014.13 1014.66 1015.11 1015.51 1015.89 1016.26 1016.63 1017.00 1017.33 1017.60
1007.44 1007.97 1008.50 1008.95 1009.28 1009.48 1009.55 1009.54 1009.48 1009.44 1009.42 1009.42 1009.39 1009.25 1008.94 1008.39 1007.61 1006.64 1005.58 1004.55 1003.70 1003.13 1002.94 1003.12 1003.65 1004.43 1005.34 1006.28 1007.18 1007.99 1008.69 1009.33 1009.93 1010.55 1011.19 1011.88 1012.58 1013.27 1013.90 1014.47 1014.95 1015.37 1015.75 1016.11 1016.47 1016.83 1017.19 1017.52 1017.80
1007.23 1007.85 1008.51 1009.11 1009.60 1009.92 1010.06 1010.06 1009.97 1009.85 1009.75 1009.69 1009.64 1009.57 1009.42 1009.13 1008.66 1008.04 1007.32 1006.58 1005.93 1005.48 1005.28 1005.36 1005.71 1006.27 1006.96 1007.70 1008.42 1009.08 1009.67 1010.22 1010.75 1011.28 1011.85 1012.45 1013.06 1013.66 1014.22 1014.73 1015.17 1015.56 1015.92 1016.26 1016.60 1016.96 1017.31 1017.64 1017.92
1007.06 1007.82 1008.65 1009.44 1010.10 1010.55 1010.76 1010.77 1010.61 1010.39 1010.17 1010.00 1009.90 1009.85 1009.80 1009.70 1009.48 1009.15 1008.71 1008.22 1007.75 1007.38 1007.18 1007.17 1007.39 1007.77 1008.28 1008.86 1009.44 1010.00 1010.53 1011.01 1011.48 1011.95 1012.44 1012.95 1013.48 1014.00 1014.49 1014.94 1015.34 1015.70 1016.04 1016.36 1016.69 1017.03 1017.37 1017.69 1017.97
1007.00 1007.94 1008.98 1009.97 1010.80 1011.36 1011.63 1011.61 1011.37 1011.01 1010.64 1010.33 1010.13 1010.04 1010.03 1010.05 1010.02 1009.90 1009.68 1009.39 1009.06 1008.76 1008.56 1008.51 1008.61 1008.88 1009.27 1009.74 1010.25 1010.75 1011.24 1011.69 1012.12 1012.55 1012.97 1013.41 1013.85 1014.30 1014.72 1015.12 1015.49 1015.83 1016.15 1016.45 1016.76 1017.08 1017.39 1017.69 1017.96
1007.10 1008.24 1009.49 1010.67 1011.65 1012.30 1012.59 1012.52 1012.17 1011.64 1011.09 1010.61 1010.28 1010.12 1010.11 1010.18 1010.27 1010.31 1010.26 1010.12 1009.91 1009.68 1009.49 1009.40 1009.45 1009.65 1009.97 1010.39 1010.86 1011.36 1011.83 1012.28 1012.69 1013.08 1013.46 1013.83 1014.20 1014.58 1014.95 1015.31 1015.65 1015.97 1016.27 1016.55 1016.83 1017.11 1017.39 1017.65 1017.89
1007.32 1008.67 1010.10 1011.44 1012.53 1013.23 1013.50 1013.36 1012.88 1012.20 1011.46 1010.82 1010.35 1010.11 1010.06 1010.17 1010.33 1010.49 1010.56 1010.53 1010.41 1010.25 1010.08 1009.99 1010.02 1010.18 1010.48 1010.88 1011.36 1011.86 1012.34 1012.79 1013.20 1013.56 1013.90 1014.22 1014.53 1014.86 1015.18 1015.51 1015.83 1016.13 1016.41 1016.67 1016.91 1017.14 1017.36 1017.57 1017.76
1007.62 1009.13 1010.70 1012.15 1013.29 1014.01 1014.24 1014.00 1013.40 1012.57 1011.69 1010.91 1010.34 1010.02 1009.94 1010.06 1010.29 1010.53 1010.70 1010.77 1010.73 1010.62 1010.50 1010.42 1010.44 1010.60 1010.89 1011.30 1011.79 1012.30 1012.80 1013.26 1013.65 1013.99 1014.29 1014.56 1014.83 1015.11 1015.41 1015.71 1016.01 1016.30 1016.57 1016.80 1017.00 1017.16 1017.31 1017.45 1017.57
1007.88 1009.50 1011.16 1012.64 1013.80 1014.48 1014.66 1014.35 1013.65 1012.72 1011.75 1010.88 1010.24 1009.89 1009.81 1009.96 1010.24 1010.55 1010.81 1010.96 1011.00 1010.95 1010.86 1010.81 1010.84 1011.00 1011.29 1011.71 1012.20 1012.71 1013.22 1013.67 1014.05 1014.36 1014.62 1014.85 1015.08 1015.33 1015.60 1015.89 1016.18 1016.46 1016.71 1016.91 1017.06 1017.17 1017.24 1017.29 1017.34
1008.05 1009.70 1011.35 1012.82 1013.93 1014.57 1014.68 1014.32 1013.58 1012.61 1011.61 1010.73 1010.10 1009.76 1009.72 1009.92 1010.26 1010.64 1010.97 1011.20 1011.30 1011.30 1011.26 1011.23 1011.27 1011.43 1011.72 1012.12 1012.60 1013.10 1013.59 1014.01 1014.36 1014.64 1014.86 1015.06 1015.26 1015.48 1015.74 1016.02 1016.31 1016.59 1016.82 1016.99 1017.10 1017.14 1017.13 1017.10 1017.08
1008.05 1009.65 1011.24 1012.62 1013.66 1014.23 1014.31 1013.93 1013.20 1012.27 1011.32 1010.51 1009.94 1009.67 1009.70 1009.96 1010.37 1010.82 1011.22 1011.51 1011.67 1011.72 1011.71 1011.70 1011.75 1011.91 1012.18 1012.55 1013.00 1013.46 1013.90 1014.29 1014.59 1014.83 1015.01 1015.18 1015.35 1015.56 1015.80 1016.08 1016.37 1016.65 1016.87 1017.02 1017.09 1017.08 1017.01 1016.90 1016.80
1007.87 1009.36 1010.81 1012.08 1013.01 1013.52 1013.58 1013.23 1012.58 1011.75 1010.92 1010.23 1009.79 1009.62 1009.74 1010.08 1010.56 1011.07 1011.52 1011.86 1012.07 1012.16 1012.19 1012.20 1012.25 1012.39 1012.64 1012.97 1013.36 1013.77 1014.15 1014.48 1014.73 1014.92 1015.07 1015.20 1015.36 1015.55 1015.79 1016.07 1016.37 1016.64 1016.86 1016.99 1017.03 1016.98 1016.85 1016.69 1016.52
1007.56 1008.87 1010.15 1011.26 1012.09 1012.55 1012.61 1012.33 1011.79 1011.12 1010.47 1009.94 1009.65 1009.61 1009.83 1010.24 1010.77 1011.32 1011.81 1012.19 1012.44 1012.57 1012.62 1012.65 1012.71 1012.84 1013.05 1013.33 1013.66 1014.00 1014.32 1014.58 1014.78 1014.93 1015.04 1015.15 1015.29 1015.48 1015.72 1015.99 1016.29 1016.56 1016.77 1016.89 1016.91 1016.83 1016.67 1016.46 1016.24
1007.19 1008.30 1009.38 1010.33 1011.04 1011.45 1011.54 1011.35 1010.96 1010.46 1009.99 1009.65 1009.51 1009.60 1009.90 1010.37 1010.93 1011.51 1012.02 1012.42 1012.69 1012.86 1012.94 1013.00 1013.07 1013.19 1013.37 1013.60 1013.88 1014.16 1014.41 1014.62 1014.78 1014.89 1014.98 1015.07 1015.19 1015.37 1015.60 1015.86 1016.14 1016.40 1016.60 1016.71 1016.72 1016.63 1016.44 1016.21 1015.96
Thickness
5827 5829 5828 5820 5800 5793 5794 5807 5816 5815 5818 5826 5828 5821 5808 5799 5790 5777 5802 5814 5813 5808 5803 5800 5798 5798 5797 5796 5795 5794 5793 5792 5791 5789 5788 5787 5786 5785 5784 5782 5782 5781 5780 5779 5779 5778 5776 5775 5773
5835 5837 5828 5814 5794 5785 5793 5812 5812 5817 5825 5832 5828 5821 5811 5802 5807 5803 5808 5814 5814 5810 5805 5801 5798 5797 5796 5795 5794 5793 5792 5791 5790 5789 5788 5786 5785 5784 5783 5782 5781 5780 5780 5779 5779 5777 5776 5775 5773
5838 5840 5822 5810 5799 5793 5798 5815 5819 5828 5835 5832 5823 5820 5811 5802 5807 5807 5812 5816 5815 5811 5805 5800 5798 5797 5795 5795 5793 5792 5791 5791 5789 5788 5787 5786 5785 5784 5783 5782 5781 5780 5780 5779 5778 5777 5776 5775 5773
5838 5834 5826 5813 5805 5815 5819 5824 5830 5829 5831 5833 5825 5811 5810 5817 5814 5814 5817 5818 5814 5810 5805 5800 5798 5796 5795 5794 5793 5792 5791 5790 5789 5788 5786 5785 5784 5783 5782 5781 5780 5780 5779 5779 5778 5777 5776 5775 5774
5841 5828 5813 5810 5815 5825 5833 5836 5836 5827 5826 5827 5821 5804 5801 5816 5821 5819 5819 5818 5814 5810 5806 5800 5798 5796 5795 5794 5792 5791 5790 5790 5789 5788 5787 5785 5784 5783 5782 5781 5780 5780 5779 5778 5778 5777 5776 5775 5774
5831 5830 5809 5807 5816 5827 5836 5842 5838 5830 5828 5827 5819 5806 5802 5817 5818 5819 5820 5818 5816 5812 5807 5801 5798 5797 5795 5794 5792 5791 5790 5789 5789 5788 5787 5786 5785 5783 5782 5782 5781 5780 5779 5778 5778 5777 5776 5775 5774
5827 5822 5814 5821 5819 5822 5833 5843 5836 5829 5825 5828 5828 5808 5805 5814 5819 5821 5820 5819 5816 5813 5809 5804 5800 5798 5796 5795 5793 5792 5790 5790 5789 5788 5787 5786 5785 5784 5783 5782 5781 5780 5780 5779 5778 5777 5776 5775 5774
5854 5836 5826 5827 5822 5821 5840 5843 5842 5834 5828 5840 5837 5812 5802 5814 5822 5821 5819 5817 5815 5813 5810 5808 5805 5802 5800 5797 5795 5793 5792 5791 5790 5789 5788 5787 5786 5785 5784 5783 5782 5782 5781 5781 5779 5778 5777 5776 5775
5866 5834 5820 5826 5827 5829 5844 5840 5843 5849 5839 5836 5836 5828 5822 5825 5823 5817 5813 5812 5811 5811 5810 5809 5807 5806 5804 5802 5798 5795 5793 5792 5791 5790 5789 5788 5787 5787 5785 5785 5783 5783 5783 5782 5780 5779 5778 5777 5776
5857 5829 5833 5848 5849 5844 5846 5843 5844 5840 5830 5827 5826 5827 5828 5825 5820 5812 5808 5806 5806 5807 5810 5810 5809 5808 5807 5806 5801 5799 5797 5794 5793 5792 5791 5790 5789 5789 5788 5786 5785 5784 5784 5782 5781 5780 5779 5778 5778
5861 5845 5854 5859 5862 5857 5849 5847 5851 5838 5824 5825 5820 5821 5824 5822 5818 5813 5811 5809 5808 5811 5811 5811 5810 5809 5808 5806 5804 5801 5799 5797 5796 5794 5793 5791 5790 5790 5788 5787 5785 5785 5784 5783 5782 5781 5781 5781 5780
5865 5863 5865 5864 5867 5860 5852 5850 5844 5838 5833 5840 5835 5830 5826 5821 5818 5815 5813 5812 5812 5811 5812 5814 5812 5809 5808 5807 5805 5803 5801 5799 5797 5796 5794 5793 5791 5790 5789 5788 5787 5786 5786 5785 5784 5783 5783 5783 5783
5862 5862 5868 5872 5869 5865 5858 5849 5843 5839 5845 5845 5839 5832 5827 5825 5822 5821 5819 5817 5815 5813 5813 5814 5813 5810 5808 5806 5805 5805 5802 5800 5798 5796 5795 5794 5792 5791 5790 5789 5788 5787 5787 5786 5785 5784 5784 5783 5783
5866 5868 5867 5870 5868 5866 5854 5848 5844 5840 5848 5842 5835 5830 5830 5828 5825 5822 5820 5817 5816 5815 5814 5815 5814 5811 5809 5807 5805 5805 5804 5802 5800 5797 5795 5794 5793 5791 5790 5789 5787 5787 5787 5786 5786 5785 5784 5784 5783
5872 5859 5858 5865 5868 5865 5854 5836 5840 5847 5848 5839 5835 5833 5831 5830 5829 5824 5823 5820 5819 5818 5817 5816 5815 5813 5810 5808 5807 5807 5806 5804 5801 5798 5796 5794 5793 5791 5790 5788 5787 5786 5786 5786 5785 5784 5784 5782 5782
5867 5851 5835 5857 5869 5868 5849 5822 5843 5854 5847 5837 5836 5835 5832 5831 5831 5830 5828 5824 5824 5821 5819 5818 5819 5814 5811 5808 5807 5807 5807 5804 5802 5799 5796 5795 5793 5792 5790 5787 5786 5786 5786 5785 5783 5782 5780 5779 5779
5853 5838 5838 5852 5871 5869 5855 5833 5847 5856 5849 5840 5838 5836 5833 5831 5831 5832 5831 5828 5826 5823 5820 5818 5817 5814 5812 5810 5808 5807 5806 5804 5802 5800 5797 5795 5794 5792 5789 5787 5786 5785 5785 5783 5782 5780 5779 5777 5776
5839 5843 5846 5849 5868 5867 5854 5845 5851 5857 5852 5846 5842 5840 5836 5833 5832 5835 5834 5832 5829 5825 5822 5819 5817 5815 5813 5811 5808 5806 5805 5804 5803 5800 5797 5796 5793 5791 5789 5787 5786 5785 5783 5781 5780 5778 5778 5776 5775
5855 5853 5848 5858 5875 5865 5855 5850 5853 5860 5856 5851 5846 5842 5838 5837 5841 5840 5837 5834 5830 5826 5822 5819 5816 5815 5812 5809 5806 5803 5801 5802 5801 5800 5797 5795 5793 5791 5789 5787 5785 5784 5781 5779 5778 5777 5775 5774 5774
5858 5850 5850 5862 5875 5865 5853 5851 5859 5862 5860 5858 5851 5846 5844 5841 5841 5839 5837 5835 5831 5826 5824 5821 5818 5816 5814 5811 5809 5807 5805 5804 5803 5801 5798 5795 5793 5791 5790 5786 5784 5783 5781 5778 5777 5775 5772 5772 5773
5854 5851 5851 5851 5864 5865 5852 5841 5850 5860 5867 5864 5862 5857 5853 5847 5843 5841 5838 5836 5834 5829 5826 5824 5821 5818 5816 5814 5812 5809 5806 5803 5801 5798 5796 5794 5792 5790 5788 5786 5784 5782 5780 5777 5775 5774 5771 5768 5770
5845 5864 5862 5857 5845 5838 5843 5819 5839 5853 5855 5857 5857 5858 5857 5855 5851 5846 5842 5839 5837 5835 5832 5828 5824 5820 5817 5815 5812 5807 5802 5798 5798 5797 5796 5794 5792 5790 5788 5786 5783 5781 5779 5776 5775 5774 5772 5769 5765
5857 5870 5864 5855 5845 5835 5845 5832 5831 5852 5844 5850 5856 5860 5859 5860 5857 5852 5848 5844 5842 5840 5836 5831 5826 5822 5819 5816 5813 5808 5804 5802 5801 5799 5796 5794 5792 5790 5787 5785 5782 5780 5778 5776 5774 5773 5771 5769 5765
5872 5864 5857 5854 5843 5817 5836 5833 5827 5846 5849 5853 5860 5863 5863 5864 5862 5858 5855 5850 5845 5843 5839 5833 5826 5821 5819 5816 5814 5809 5805 5802 5799 5796 5794 5793 5791 5789 5787 5784 5782 5779 5777 5775 5773 5772 5770 5767 5765
5864 5841 5818 5811 5807 5816 5846 5839 5838 5864 5872 5869 5865 5866 5868 5867 5863 5859 5854 5849 5846 5842 5839 5834 5827 5822 5820 5817 5814 5810 5807 5803 5799 5796 5794 5792 5790 5787 5785 5784 5781 5778 5776 5774 5773 5770 5768 5766 5763
5855 5843 5812 5796 5801 5824 5842 5829 5848 5877 5881 5881 5876 5873 5871 5868 5865 5861 5857 5853 5849 5845 5841 5835 5828 5823 5821 5817 5814 5811 5808 5804 5802 5798 5796 5792 5790 5788 5786 5783 5780 5778 5776 5774 5771 5769 5767 5765 5762
5847 5844 5851 5831 5822 5816 5827 5837 5857 5876 5873 5873 5871 5869 5866 5866 5865 5861 5859 5856 5851 5847 5843 5838 5831 5825 5822 5818 5814 5810 5808 5805 5802 5799 5796 5793 5790 5788 5785 5782 5779 5777 5775 5772 5769 5766 5764 5763 5761
5863 5855 5842 5826 5803 5797 5814 5825 5835 5849 5857 5863 5864 5863 5864 5865 5864 5861 5860 5857 5854 5850 5846 5841 5835 5828 5823 5819 5815 5811 5807 5804 5801 5798 5794 5791 5789 5786 5783 5780 5777 5775 5773 5770 5767 5765 5763 5760 5759
5852 5849 5844 5836 5828 5804 5798 5816 5858 5859 5862 5863 5864 5865 5863 5861 5860 5859 5859 5857 5853 5850 5846 5839 5834 5828 5823 5819 5815 5811 5808 5804 5801 5797 5794 5791 5788 5785 5781 5779 5776 5773 5770 5768 5765 5762 5761 5758 5756
5858 5852 5846 5823 5816 5820 5807 5817 5868 5868 5871 5868 5865 5864 5864 5861 5861 5859 5857 5855 5851 5846 5842 5837 5832 5827 5823 5820 5815 5811 5807 5804 5800 5796 5793 5790 5787 5784 5780 5777 5774 5771 5768 5766 5763 5760 5758 5755 5752